[[{"header":{"parameterUnit":"m.s-1","parameterCategory":2,"la1":30.2991,"la2":30.254,"lo1":-89.0895,"lo2":-89.0444,"dy":0.0017,"dx":0.0017,"nx":28,"ny":28,"refTime":"2025-03-05T09:00:00:Z","depth":"0","parameterNumber":2,"parameterNumberName":"U-component_of_CURRENTS"},"data":[0,0,0,0,0,0,0,0,0,0,0,0,0,0,0,0,0,0,0,0,0,0,0,0,0,0,0,0,0,0,0,0,0,0,0,0,0,0,0,0,0,0,0,0,0,0,0,0,0,0,0,0,0,0,0,0,0,0,0.2062,0.2064,0,0.214,0.214,0.2141,0.2135,0.2135,0.2135,0.2134,0.2244,0.2247,0.225,0,0,0,0,0,0,0,0,0,0,0,0,0,0.2012,0.2012,0.2062,0.2064,0.2066,0.214,0.214,0.2141,0.2136,0.2135,0.2134,0.2134,0.2242,0.2246,0.225,0,0,0,0,0,0,0,0,0,0,0,0,0,0.2049,0.2012,0.2062,0.2077,0.208,0.214,0.214,0.2141,0.2136,0.2135,0.2134,0.2134,0.2241,0.2246,0.2251,0.2297,0,0,0.2266,0.2269,0,0,0,0,0,0,0,0,0.2047,0.205,0.2073,0.2076,0.208,0.2134,0.2164,0.2197,0.2136,0.2107,0.2134,0.2133,0.2215,0.2222,0.2228,0.2302,0.2306,0.2267,0.227,0.2272,0.2274,0,0,0,0,0,0,0,0.2044,0.2048,0.2086,0.2075,0.2079,0.2116,0.2119,0.217,0.2159,0.2109,0.2111,0.2131,0.2216,0.2223,0.223,0.2308,0.2267,0.2271,0.2274,0.2276,0.2347,0.2346,0,0,0,0,0,0,0.2045,0.2044,0.2083,0.2089,0.207,0.2118,0.2121,0.2111,0.2158,0.2166,0.2132,0.2131,0.2214,0.2224,0.2234,0.2266,0.2272,0.2277,0.228,0.2348,0.2347,0.2345,0,0,0,0,0,0,0.2043,0.2046,0.208,0.2076,0.2084,0.2119,0.2109,0.2113,0.2126,0.2176,0.2183,0.2142,0.2214,0.2227,0.221,0.2272,0.2279,0.2284,0.2349,0.2348,0.2346,0.2347,0,0,0,0,0,0,0.204,0.2044,0.204,0.2075,0.2085,0.2099,0.2111,0.2116,0.2143,0.2142,0.2188,0.2196,0.2215,0.2201,0.2215,0.2279,0.2288,0.2351,0.2349,0.2347,0.2349,0.2346,0.2343,0,0,0,0,0,0.2038,0.2052,0.2038,0.2044,0.2075,0.21,0.2106,0.2126,0.2144,0.2137,0.2125,0.2195,0.22,0.2202,0.2219,0.2287,0.2352,0.2349,0.2347,0.235,0.2346,0.2343,0,0,0,0,0,0,0.2083,0.2054,0.204,0.2057,0.2064,0.2101,0.2126,0.2134,0.2126,0.2132,0.216,0.2166,0.2199,0.2211,0.2214,0.2292,0.2299,0.2299,0.2295,0.2293,0.229,0.2347,0.2292,0,0,0,0,0,0.2076,0.2037,0.2049,0.206,0.2071,0.2095,0.2115,0.2121,0.2128,0.2126,0.2145,0.2167,0.2204,0.2213,0.2247,0.227,0.2305,0.2325,0.2323,0.232,0.2372,0.2415,0.2423,0.2337,0.2337,0.2337,0,0,0.2087,0.2082,0.2055,0.206,0.2079,0.2096,0.2103,0.2135,0.2156,0.2144,0.2164,0.2173,0.2206,0.223,0.2249,0.2245,0.2351,0.2317,0.2316,0.237,0.2413,0.2422,0.243,0.2335,0.2335,0.2336,0,0,0.2116,0.2098,0.2076,0.2082,0.2105,0.2114,0.2122,0.2142,0.2156,0.2154,0.2169,0.2184,0.2216,0.2251,0.2278,0.2281,0.2347,0.2296,0.2328,0.2366,0.2376,0.2384,0.2399,0.2409,0.228,0.228,0.228,0,0.2112,0.2124,0.2086,0.2101,0.2129,0.2122,0.2152,0.2163,0.2166,0.2189,0.2158,0.224,0.2248,0.2334,0.2305,0.2294,0.23,0.2342,0.2369,0.2378,0.2387,0.2401,0.2412,0.228,0.228,0.228,0.228,0,0.2147,0.2154,0.2168,0.215,0.2166,0.2196,0.221,0.2216,0.2226,0.2238,0.2309,0.2303,0.2358,0.2358,0.2326,0.241,0.2388,0.2374,0.2389,0.2397,0.2408,0.242,0.228,0.228,0.228,0.228,0,0,0.2116,0.2161,0.2165,0.2178,0.2203,0.2215,0.2259,0.2295,0.2325,0.2342,0.2413,0.245,0.2461,0.249,0.2486,0.2495,0.2519,0.2442,0.2444,0.248,0.2581,0.2653,0.2673,0.2496,0.2499,0.2501,0.255,0,0.2145,0.2191,0.2209,0.2249,0.2281,0.2293,0.2325,0.2352,0.2368,0.241,0.2479,0.2527,0.2513,0.2525,0.2552,0.2544,0.2556,0.2507,0.2552,0.2554,0.2637,0.2693,0.2798,0.286,0.2562,0.2564,0.2565,0,0.2177,0.2207,0.2262,0.2306,0.232,0.2333,0.2386,0.2409,0.2472,0.249,0.2581,0.2614,0.2701,0.2646,0.2725,0.2685,0.2645,0.2622,0.2623,0.2721,0.2653,0.281,0.2893,0.2939,0.2584,0.2582,0.2581,0,0.2188,0.2243,0.2289,0.2305,0.2345,0.2375,0.2394,0.2439,0.2486,0.2549,0.2604,0.2704,0.2778,0.2786,0.2788,0.2734,0.2845,0.2763,0.2806,0.2808,0.2933,0.2943,0.3105,0.281,0.281,0.2809,0.2809,0,0.2218,0.2249,0.2293,0.2309,0.2351,0.2383,0.2417,0.2448,0.2535,0.2598,0.266,0.2764,0.2809,0.2889,0.2841,0.2915,0.2909,0.2866,0.2855,0.2928,0.2937,0.301,0.2942,0.2811,0.2811,0.281,0.281,0,0.2227,0.2254,0.2296,0.2343,0.2354,0.238,0.2437,0.2461,0.2548,0.2653,0.2696,0.2842,0.2945,0.3003,0.3015,0.3014,0.2987,0.3032,0.3114,0.3115,0.319,0.3114,0.289,0.286,0.3092,0.3095,0.3097,0,0.2245,0.2266,0.2304,0.2303,0.2322,0.2354,0.2368,0.2453,0.2505,0.27,0.2774,0.294,0.3057,0.3187,0.3225,0.325,0.3079,0.3306,0.3241,0.3273,0.3179,0.2806,0.277,0.3369,0.3374,0.3377,0.338,0,0.2253,0.2254,0.2262,0.2284,0.2294,0.2316,0.2369,0.2441,0.2555,0.268,0.2862,0.2986,0.3198,0.3358,0.3448,0.3427,0.3235,0.3376,0.3408,0.3444,0.3051,0.2994,0.3221,0.341,0.3407,0.3405,0.3403,0.3402,0.2227,0.2233,0.2224,0.2234,0.2243,0.2283,0.2347,0.2429,0.2556,0.2793,0.29,0.3123,0.3455,0.3641,0.3605,0.3726,0.3407,0.37,0.3609,0.3227,0.3203,0.35,0.3679,0.3677,0.3676,0.3675,0.3674,0,0.2174,0.2169,0.2173,0.219,0.2218,0.2249,0.234,0.2432,0.2592,0.2816,0.3004,0.3381,0.3653,0.3831,0.405,0.4011,0.3718,0.3942,0.3518,0.3481,0.3834,0.3872,0.4108,0.4107,0.4107,0.4107,0.4107,0.4107,0.2139,0.2094,0.2098,0.2129,0.2193,0.229,0.2373,0.2505,0.2675,0.2941,0.316,0.3326,0.3641,0.4007,0.4161,0.4118,0.3842,0.3672,0.354,0.3951,0.3922,0.3894,0.3924,0.4166,0.4165,0.3141,0.3134,0.3129]},{"header":{"parameterUnit":"m.s-1","parameterCategory":2,"la1":30.2991,"la2":30.254,"lo1":-89.0895,"lo2":-89.0444,"dy":0.0017,"dx":0.0017,"nx":28,"ny":28,"refTime":"2025-03-05T09:00:00:Z","depth":"0","parameterNumber":3,"parameterNumberName":"V-component_of_CURRENTS"},"data":[0,0,0,0,0,0,0,0,0,0,0,0,0,0,0,0,0,0,0,0,0,0,0,0,0,0,0,0,0,0,0,0,0,0,0,0,0,0,0,0,0,0,0,0,0,0,0,0,0,0,0,0,0,0,0,0,0,0,0.032,0.032,0,0.027,0.0269,0.0269,0.0248,0.0248,0.0249,0.0249,0.0144,0.0141,0.0138,0,0,0,0,0,0,0,0,0,0,0,0,0,0.0239,0.0242,0.032,0.032,0.0319,0.027,0.0269,0.0268,0.0248,0.0248,0.0249,0.0249,0.0145,0.0141,0.0138,0,0,0,0,0,0,0,0,0,0,0,0,0,0.024,0.0242,0.032,0.0303,0.0301,0.027,0.0269,0.0268,0.0248,0.0248,0.0249,0.0249,0.0146,0.0142,0.0137,0.0105,0,0,0.0124,0.0122,0,0,0,0,0,0,0,0,0.024,0.0243,0.0307,0.0305,0.0302,0.0266,0.0202,0.0211,0.0248,0.0268,0.0249,0.0249,0.018,0.0172,0.0163,0.01,0.0096,0.0123,0.0121,0.0119,0.0117,0,0,0,0,0,0,0,0.024,0.0244,0.03,0.0306,0.0303,0.0243,0.0245,0.0203,0.0222,0.0266,0.0265,0.026,0.0178,0.0167,0.016,0.0094,0.0123,0.012,0.0117,0.0115,-0.001,-0.0011,0,0,0,0,0,0,0.0256,0.0245,0.0302,0.0298,0.0272,0.0245,0.0247,0.0277,0.0223,0.0216,0.0259,0.0259,0.0174,0.0165,0.0156,0.0137,0.0119,0.0115,0.0112,-0.001,-0.0011,-0.0011,0,0,0,0,0,0,0.0255,0.0263,0.0304,0.0268,0.0269,0.0248,0.028,0.0276,0.0267,0.0219,0.021,0.0256,0.0174,0.0162,0.0148,0.0132,0.0113,0.0109,-0.0009,-0.001,-0.0011,0.0085,0,0,0,0,0,0,0.0254,0.0264,0.0286,0.0271,0.0272,0.0302,0.028,0.0275,0.0264,0.0262,0.0212,0.0203,0.0173,0.0155,0.0144,0.0126,0.0105,-0.0008,-0.0009,-0.0011,0.0083,0.0087,0.0091,0,0,0,0,0,0.0252,0.0279,0.0288,0.0294,0.0306,0.0303,0.0299,0.0281,0.0264,0.0271,0.0248,0.0205,0.0137,0.0153,0.0139,0.0119,-0.0007,-0.0009,-0.001,0.0081,0.0087,0.0091,0,0,0,0,0,0,0.0239,0.0279,0.0289,0.0324,0.0324,0.03,0.0296,0.0282,0.0267,0.0263,0.0217,0.0207,0.018,0.0136,0.0154,0.0074,0.0047,0.0043,0.0121,0.0126,0.013,0.014,0.0102,0,0,0,0,0,0.0253,0.03,0.0307,0.0336,0.0336,0.0316,0.0308,0.0302,0.0285,0.0278,0.0246,0.0199,0.0159,0.0138,0.0098,0.0067,0.0037,0.0035,0.0039,0.0043,0.0039,0.0017,0.002,-0.0016,-0.0016,-0.0016,0,0,0.026,0.0282,0.0311,0.0338,0.0331,0.034,0.0313,0.0311,0.0313,0.0267,0.0258,0.0218,0.0155,0.0128,0.0107,0.0093,0.0037,0.0041,0.0046,0.0039,0.0016,0.002,0.0023,-0.0017,-0.0017,-0.0017,0,0,0.0282,0.0313,0.0353,0.0361,0.0363,0.0353,0.0356,0.0342,0.0333,0.0325,0.0285,0.0244,0.0189,0.0144,0.011,0.0105,0.0065,0.0082,0.0112,0.0092,0.0095,0.0098,0.0073,0.0073,0.0082,0.0082,0.0082,0,0.0294,0.0344,0.0356,0.038,0.0392,0.0363,0.0389,0.0369,0.0354,0.0349,0.0333,0.0241,0.0188,0.014,0.0142,0.0113,0.0108,0.0107,0.0102,0.0104,0.0105,0.0078,0.0077,0.0087,0.0086,0.0086,0.0085,0,0.033,0.0375,0.0388,0.0429,0.0438,0.0455,0.0441,0.0436,0.0415,0.0395,0.0353,0.0287,0.0235,0.0197,0.0172,0.0141,0.0136,0.012,0.0101,0.0116,0.0085,0.0082,0.0093,0.0091,0.009,0.0089,0,0,0.0363,0.0417,0.0423,0.0463,0.0473,0.0491,0.0488,0.0489,0.0492,0.0442,0.0442,0.0342,0.0306,0.0264,0.0209,0.0176,0.0177,0.0166,0.0163,0.0163,0.0149,0.0142,0.0137,0.0186,0.0186,0.0186,0.0128,0,0.0396,0.0471,0.0477,0.0541,0.0582,0.0569,0.0573,0.0565,0.0543,0.0535,0.044,0.0409,0.033,0.0314,0.027,0.0211,0.0173,0.0194,0.0114,0.0111,0.0122,0.0134,0.0241,0.0199,0.0125,0.0125,0.0124,0,0.0425,0.0482,0.0561,0.063,0.0643,0.0665,0.0691,0.0693,0.0655,0.0638,0.0581,0.052,0.0445,0.0388,0.0271,0.0305,0.0232,0.017,0.0167,0.0122,0.0098,0.0167,0.0196,0.0045,0.0119,0.0119,0.012,0,0.0459,0.0538,0.0615,0.064,0.0698,0.0724,0.0741,0.0725,0.0739,0.0707,0.0722,0.0611,0.0582,0.0469,0.0332,0.0321,0.0223,0.0187,0.0095,0.0093,0.0143,0.0146,0.0033,0.01,0.01,0.01,0.01,0,0.0507,0.0567,0.0642,0.0691,0.0769,0.0784,0.0839,0.0836,0.0836,0.0882,0.0783,0.0802,0.0611,0.053,0.0384,0.0242,0.0258,0.01,0.008,0.0177,0.0184,0.002,-0.0011,0.0098,0.0099,0.0099,0.0099,0,0.0542,0.0588,0.0681,0.0765,0.0793,0.0851,0.0917,0.0949,0.0948,0.1013,0.1012,0.0952,0.0863,0.0657,0.0481,0.0327,0.0131,0.0112,0.0232,0.0227,-0.0013,-0.0039,-0.0121,-0.0184,-0.0001,-0.0001,-0.0002,0,0.057,0.0623,0.0739,0.08,0.0846,0.0926,0.0976,0.0997,0.1047,0.1123,0.1169,0.1107,0.1114,0.0835,0.0547,0.0281,0.0149,0.017,0.0137,-0.0014,-0.0058,-0.008,-0.0129,0.0241,0.0243,0.0244,0.0245,0,0.0622,0.0656,0.0743,0.0869,0.095,0.1026,0.1111,0.1176,0.1232,0.1334,0.147,0.1497,0.1258,0.1081,0.0679,0.0462,0.0144,0.0186,0.0014,0.0108,0.0098,0.0026,0.025,0.0257,0.0256,0.0255,0.0255,0.0254,0.0647,0.0722,0.083,0.0952,0.1028,0.1121,0.1225,0.1368,0.1515,0.1768,0.1757,0.1991,0.1677,0.1168,0.0732,0.018,0.0204,0.0077,0.0053,0.0035,-0.0007,0.0229,0.0219,0.0218,0.0217,0.0216,0.0215,0,0.0701,0.0791,0.0907,0.1037,0.1107,0.1142,0.1313,0.1494,0.1768,0.2098,0.2318,0.2504,0.2019,0.1458,0.0713,0.0208,-0.0022,-0.0041,-0.0045,-0.01,0.0099,0.0123,0.0114,0.0114,0.0114,0.0114,0.0114,0.0115,0.0722,0.087,0.0952,0.1086,0.1152,0.1307,0.1429,0.1785,0.2122,0.2726,0.3111,0.3323,0.3119,0.1628,0.0595,0.0215,-0.0154,-0.0203,-0.0403,-0.0265,-0.0257,-0.025,-0.0243,-0.0327,-0.0328,-0.0559,-0.0561,-0.0562]}],[{"header":{"parameterUnit":"m.s-1","parameterCategory":2,"la1":30.2991,"la2":30.254,"lo1":-89.0895,"lo2":-89.0444,"dy":0.0017,"dx":0.0017,"nx":28,"ny":28,"refTime":"2025-03-05T09:00:00:Z","depth":"2","parameterNumber":2,"parameterNumberName":"U-component_of_CURRENTS"},"data":[0,0,0,0,0,0,0,0,0,0,0,0,0,0,0,0,0,0,0,0,0,0,0,0,0,0,0,0,0,0,0,0,0,0,0,0,0,0,0,0,0,0,0,0,0,0,0,0,0,0,0,0,0,0,0,0,0,0,0.2009,0.201,0,0.2091,0.2092,0.2092,0.2087,0.2086,0.2086,0.2086,0.2201,0.2204,0.2208,0,0,0,0,0,0,0,0,0,0,0,0,0,0.1945,0.1945,0.2009,0.2011,0.2012,0.2091,0.2092,0.2092,0.2087,0.2086,0.2086,0.2085,0.22,0.2204,0.2208,0,0,0,0,0,0,0,0,0,0,0,0,0,0.1986,0.1945,0.2008,0.2026,0.2029,0.2091,0.2092,0.2092,0.2087,0.2086,0.2086,0.2085,0.2199,0.2204,0.2209,0.2254,0,0,0.2225,0.2227,0,0,0,0,0,0,0,0,0.1984,0.1987,0.2021,0.2025,0.2028,0.2086,0.2112,0.2151,0.2087,0.2056,0.2086,0.2085,0.2172,0.2179,0.2183,0.2259,0.2264,0.2225,0.2228,0.2231,0.2232,0,0,0,0,0,0,0,0.1981,0.1985,0.2033,0.2024,0.2028,0.2064,0.2067,0.2119,0.211,0.2059,0.206,0.2083,0.2172,0.2178,0.2186,0.2266,0.2225,0.223,0.2233,0.2235,0.2309,0.2308,0,0,0,0,0,0,0.1983,0.1981,0.203,0.2036,0.2014,0.2066,0.2069,0.2061,0.2109,0.2118,0.2084,0.2083,0.217,0.218,0.219,0.2225,0.2231,0.2235,0.2238,0.231,0.2309,0.2308,0,0,0,0,0,0,0.1981,0.1986,0.2027,0.202,0.2028,0.2067,0.2059,0.2063,0.2076,0.213,0.2137,0.2094,0.2169,0.2183,0.2166,0.2231,0.2238,0.2242,0.2312,0.231,0.2308,0.2309,0,0,0,0,0,0,0.1978,0.1983,0.1981,0.2018,0.2029,0.2046,0.206,0.2065,0.2095,0.2094,0.2142,0.2151,0.217,0.2158,0.2171,0.2238,0.2247,0.2313,0.2311,0.2309,0.2311,0.2308,0.2305,0,0,0,0,0,0.1975,0.1991,0.1979,0.1987,0.2022,0.2047,0.2053,0.2075,0.2096,0.2087,0.2078,0.215,0.2156,0.2159,0.2176,0.2246,0.2314,0.2311,0.2309,0.2312,0.2308,0.2305,0,0,0,0,0,0,0.2022,0.1994,0.1982,0.2003,0.2009,0.2048,0.2074,0.2084,0.2076,0.2083,0.2114,0.212,0.2155,0.2168,0.2171,0.2252,0.2259,0.2259,0.2255,0.2253,0.225,0.2307,0.2251,0,0,0,0,0,0.2016,0.1975,0.199,0.2004,0.2015,0.2041,0.2062,0.2069,0.2077,0.2076,0.2096,0.2121,0.216,0.2171,0.2205,0.223,0.2265,0.2287,0.2284,0.2282,0.2334,0.2375,0.2383,0.2299,0.2299,0.2299,0,0,0.2025,0.2024,0.1994,0.2003,0.2023,0.2041,0.2049,0.2082,0.2103,0.2094,0.2115,0.2127,0.2163,0.2188,0.2208,0.2204,0.2312,0.2279,0.2278,0.2332,0.2374,0.2383,0.2391,0.2297,0.2298,0.2298,0,0,0.2054,0.2039,0.2016,0.202,0.2046,0.2058,0.2067,0.2089,0.2101,0.21,0.2119,0.2138,0.2172,0.2209,0.2238,0.2241,0.2308,0.2258,0.229,0.2327,0.2336,0.2345,0.2359,0.2369,0.2242,0.2242,0.2242,0,0.2051,0.2064,0.2025,0.2041,0.2069,0.2066,0.2096,0.2107,0.2111,0.2135,0.2104,0.2193,0.2203,0.2293,0.2265,0.2254,0.226,0.2304,0.2329,0.2338,0.2347,0.2361,0.2372,0.2242,0.2242,0.2242,0.2242,0,0.2082,0.2091,0.2105,0.2089,0.2105,0.2135,0.2149,0.2155,0.2169,0.2184,0.2258,0.2253,0.2313,0.2315,0.2285,0.2371,0.2349,0.2334,0.2349,0.2357,0.2368,0.238,0.2242,0.2242,0.2242,0.2242,0,0,0.2054,0.2096,0.21,0.2111,0.2141,0.2151,0.2196,0.2237,0.2268,0.2288,0.2361,0.2402,0.2417,0.2448,0.2447,0.2455,0.2478,0.2402,0.2404,0.244,0.2538,0.2609,0.2628,0.2454,0.2457,0.2459,0.2507,0,0.2084,0.2128,0.2146,0.2183,0.2213,0.2227,0.2258,0.2289,0.231,0.2355,0.2429,0.2481,0.2469,0.2484,0.251,0.2503,0.2515,0.2466,0.2509,0.2511,0.2594,0.2648,0.2318,0.2344,0.2519,0.2521,0.2522,0,0.2114,0.2143,0.2195,0.2235,0.2247,0.2262,0.2316,0.2341,0.2412,0.2432,0.2531,0.2569,0.2659,0.2603,0.2682,0.2643,0.2603,0.2579,0.258,0.2676,0.2608,0.237,0.2359,0.2542,0.2541,0.2539,0.2538,0,0.2121,0.2176,0.222,0.2232,0.227,0.23,0.2323,0.2374,0.2424,0.2495,0.2553,0.2658,0.2734,0.2741,0.2745,0.269,0.2799,0.2718,0.276,0.2761,0.2517,0.2495,0.2763,0.2763,0.2763,0.2763,0.2763,0,0.2148,0.2177,0.2222,0.2231,0.2273,0.2305,0.2344,0.2376,0.2473,0.2543,0.261,0.2716,0.2764,0.2845,0.2796,0.2869,0.2863,0.2819,0.2808,0.2502,0.248,0.2686,0.2676,0.2765,0.2764,0.2764,0.2764,0,0.2152,0.2176,0.2219,0.2265,0.2273,0.2302,0.2366,0.2394,0.2487,0.26,0.2647,0.2795,0.2898,0.2957,0.2967,0.2966,0.2979,0.2982,0.2632,0.2585,0.2884,0.2873,0.3035,0.3039,0.3042,0.3044,0.3046,0,0.217,0.2189,0.223,0.2227,0.2247,0.2283,0.2297,0.2388,0.2447,0.2648,0.2725,0.2893,0.2989,0.3117,0.3024,0.3011,0.3088,0.2803,0.2679,0.2954,0.2925,0.2909,0.2895,0.2296,0.2292,0.2288,0.2285,0,0.2176,0.218,0.2182,0.2209,0.2219,0.2249,0.2307,0.2382,0.2503,0.2604,0.2788,0.2892,0.2988,0.2872,0.2912,0.2846,0.2789,0.2745,0.3108,0.2334,0.2277,0.2243,0.2248,0.2255,0.2258,0.226,0.2262,0.2263,0.215,0.216,0.2146,0.2159,0.2168,0.222,0.2289,0.2258,0.235,0.2438,0.2672,0.2683,0.2732,0.2607,0.2533,0.2455,0.2646,0.2546,0.2546,0.2552,0.2515,0.2473,0.2476,0.248,0.2484,0.2487,0.249,0,0.2088,0.2092,0.2097,0.2118,0.2084,0.2184,0.2284,0.2199,0.2174,0.2227,0.2285,0.2135,0.2106,0.2179,0.1961,0.2007,0.1828,0.1997,0.1725,0.1761,0.1791,0.1703,0.1455,0.1452,0.1449,0.1446,0,0,0.2054,0.1997,0.2005,0.1967,0.2047,0.1978,0.2063,0.1914,0.1845,0.1699,0.1706,0.1885,0.2082,0.1708,0.1683,0.1553,0.1621,0.147,0.2295,0.2006,0.2032,0.2111,0.2022,0,0,0,0,0]},{"header":{"parameterUnit":"m.s-1","parameterCategory":2,"la1":30.2991,"la2":30.254,"lo1":-89.0895,"lo2":-89.0444,"dy":0.0017,"dx":0.0017,"nx":28,"ny":28,"refTime":"2025-03-05T09:00:00:Z","depth":"2","parameterNumber":3,"parameterNumberName":"V-component_of_CURRENTS"},"data":[0,0,0,0,0,0,0,0,0,0,0,0,0,0,0,0,0,0,0,0,0,0,0,0,0,0,0,0,0,0,0,0,0,0,0,0,0,0,0,0,0,0,0,0,0,0,0,0,0,0,0,0,0,0,0,0,0,0,0.0338,0.0338,0,0.0288,0.0287,0.0287,0.0266,0.0266,0.0266,0.0266,0.0159,0.0156,0.0153,0,0,0,0,0,0,0,0,0,0,0,0,0,0.026,0.0263,0.0339,0.0338,0.0337,0.0288,0.0287,0.0286,0.0266,0.0266,0.0266,0.0266,0.016,0.0156,0.0153,0,0,0,0,0,0,0,0,0,0,0,0,0,0.0261,0.0264,0.0339,0.0321,0.0319,0.0288,0.0287,0.0286,0.0266,0.0266,0.0266,0.0266,0.0161,0.0157,0.0152,0.0121,0,0,0.0139,0.0137,0,0,0,0,0,0,0,0,0.0261,0.0264,0.0324,0.0322,0.032,0.0283,0.022,0.0228,0.0266,0.0286,0.0266,0.0266,0.0195,0.0188,0.0179,0.0116,0.0112,0.0138,0.0136,0.0134,0.0132,0,0,0,0,0,0,0,0.0261,0.0265,0.0318,0.0324,0.0321,0.0262,0.0264,0.0221,0.0239,0.0284,0.0283,0.0277,0.0194,0.0183,0.0176,0.011,0.0138,0.0134,0.0132,0.013,0.0004,0.0004,0,0,0,0,0,0,0.0276,0.0266,0.032,0.0317,0.029,0.0264,0.0266,0.0295,0.0241,0.0233,0.0277,0.0276,0.0191,0.0181,0.0172,0.0153,0.0134,0.013,0.0127,0.0005,0.0004,0.0003,0,0,0,0,0,0,0.0276,0.0283,0.0322,0.0287,0.0289,0.0266,0.0298,0.0294,0.0285,0.0236,0.0227,0.0273,0.019,0.0178,0.0164,0.0147,0.0128,0.0124,0.0006,0.0005,0.0004,0.01,0,0,0,0,0,0,0.0274,0.0284,0.0305,0.029,0.0291,0.0321,0.0298,0.0293,0.0281,0.028,0.0229,0.022,0.019,0.0171,0.016,0.0141,0.012,0.0007,0.0005,0.0004,0.0098,0.0102,0.0106,0,0,0,0,0,0.0272,0.0299,0.0307,0.0313,0.0325,0.0322,0.0318,0.0299,0.0281,0.0289,0.0266,0.0221,0.0153,0.0169,0.0155,0.0134,0.0007,0.0006,0.0004,0.0096,0.0101,0.0106,0,0,0,0,0,0,0.0259,0.0299,0.0308,0.0343,0.0342,0.0319,0.0315,0.0301,0.0286,0.0281,0.0234,0.0224,0.0196,0.0152,0.017,0.009,0.0063,0.0058,0.0136,0.0141,0.0146,0.0155,0.0116,0,0,0,0,0,0.0272,0.032,0.0327,0.0355,0.0355,0.0335,0.0327,0.032,0.0304,0.0297,0.0264,0.0217,0.0176,0.0155,0.0114,0.0083,0.0053,0.005,0.0054,0.0059,0.0054,0.0032,0.0035,-0.0001,-0.0001,-0.0001,0,0,0.028,0.0301,0.0331,0.0357,0.035,0.0359,0.0331,0.0329,0.0333,0.0285,0.0276,0.0236,0.0172,0.0145,0.0124,0.011,0.0052,0.0057,0.0062,0.0054,0.0031,0.0035,0.0039,-0.0002,-0.0002,-0.0002,0,0,0.0302,0.0333,0.0373,0.0381,0.0383,0.0372,0.0375,0.0361,0.0352,0.0345,0.0304,0.0262,0.0207,0.0161,0.0127,0.0122,0.008,0.0099,0.0128,0.0108,0.0112,0.0115,0.0089,0.0089,0.0098,0.0099,0.0099,0,0.0314,0.0364,0.0376,0.04,0.0412,0.0383,0.0409,0.0389,0.0374,0.0368,0.0353,0.026,0.0206,0.0157,0.0159,0.013,0.0125,0.0123,0.0118,0.012,0.0121,0.0094,0.0093,0.0103,0.0102,0.0102,0.0102,0,0.0351,0.0396,0.0409,0.045,0.0459,0.0476,0.0462,0.0458,0.0435,0.0414,0.0372,0.0306,0.0253,0.0214,0.0189,0.0157,0.0152,0.0136,0.0117,0.0132,0.0101,0.0098,0.0109,0.0108,0.0106,0.0105,0,0,0.0384,0.0438,0.0444,0.0485,0.0494,0.0513,0.0509,0.0509,0.0511,0.0461,0.0461,0.036,0.0323,0.028,0.0225,0.0192,0.0193,0.0182,0.0179,0.0178,0.0164,0.0156,0.0152,0.0202,0.0202,0.0202,0.0143,0,0.0416,0.0492,0.0498,0.0563,0.0604,0.0591,0.0595,0.0586,0.0562,0.0553,0.0457,0.0426,0.0347,0.033,0.0286,0.0227,0.0189,0.021,0.0129,0.0126,0.0136,0.0149,0.0156,0.0105,0.014,0.0139,0.0139,0,0.0446,0.0503,0.0583,0.0652,0.0666,0.0688,0.0711,0.0713,0.0673,0.0655,0.0596,0.0535,0.0459,0.0403,0.0286,0.0319,0.0247,0.0185,0.0182,0.0136,0.0112,0.009,0.0097,0.0133,0.0133,0.0134,0.0134,0,0.0481,0.056,0.0636,0.0663,0.0721,0.0747,0.0762,0.0744,0.0757,0.0723,0.0736,0.0625,0.0595,0.0482,0.0345,0.0335,0.0236,0.0201,0.0108,0.0107,0.0071,0.0067,0.0114,0.0114,0.0114,0.0114,0.0115,0,0.053,0.059,0.0664,0.0715,0.0792,0.0807,0.0859,0.0855,0.0853,0.0897,0.0797,0.0813,0.0624,0.0542,0.0397,0.0254,0.027,0.0112,0.0093,0.0104,0.0104,0.0089,0.0087,0.0112,0.0113,0.0113,0.0113,0,0.0566,0.0613,0.0705,0.0788,0.0817,0.0873,0.0936,0.0967,0.0964,0.1026,0.1024,0.0962,0.0872,0.0666,0.0491,0.0337,0.0183,0.0122,0.0143,0.0127,0.005,0.0053,0.001,0.0009,0.0009,0.0008,0.0008,0,0.0594,0.0647,0.0762,0.0823,0.0868,0.0946,0.0994,0.1014,0.1062,0.1134,0.1179,0.1115,0.1111,0.0832,0.0526,0.0254,0.0213,0.0075,0.0031,0.0055,0.004,0.0044,0.0048,0.0018,0.0018,0.0018,0.0017,0,0.0646,0.0679,0.0767,0.089,0.097,0.1043,0.1127,0.1191,0.1244,0.1336,0.1469,0.1486,0.1226,0.0964,0.0552,0.0352,0.0114,0.0062,0.0092,0.005,0.0059,0.0046,0.005,0.0015,0.0015,0.0015,0.0016,0.0016,0.0671,0.0744,0.0853,0.0972,0.1047,0.1136,0.1239,0.1352,0.1486,0.1662,0.1663,0.1718,0.1381,0.0877,0.0514,0.011,0.0131,-0.0016,-0.0014,-0.0013,0.0006,0.0014,-0.0036,-0.0036,-0.0036,-0.0036,-0.0036,0,0.0726,0.0813,0.0928,0.1055,0.1134,0.1157,0.1326,0.1478,0.1705,0.1833,0.1965,0.1683,0.1331,0.0945,0.0357,0.0013,-0.0039,-0.0104,-0.0088,-0.0083,-0.0079,-0.0064,-0.0125,-0.0126,-0.0127,-0.0128,0,0,0.0746,0.0895,0.0974,0.1118,0.1181,0.1352,0.1472,0.1722,0.1898,0.209,0.2104,0.1991,0.1508,0.1059,0.057,0.0245,0.0164,0.0164,0.0272,0.0356,0.0364,0.0004,0.0038,0,0,0,0,0]}],[{"header":{"parameterUnit":"m.s-1","parameterCategory":2,"la1":30.2991,"la2":30.254,"lo1":-89.0895,"lo2":-89.0444,"dy":0.0017,"dx":0.0017,"nx":28,"ny":28,"refTime":"2025-03-05T09:00:00:Z","depth":"4","parameterNumber":2,"parameterNumberName":"U-component_of_CURRENTS"},"data":[0,0,0,0,0,0,0,0,0,0,0,0,0,0,0,0,0,0,0,0,0,0,0,0,0,0,0,0,0,0,0,0,0,0,0,0,0,0,0,0,0,0,0,0,0,0,0,0,0,0,0,0,0,0,0,0,0,0,0.0669,0.0669,0,0.0706,0.0706,0.0706,0.075,0.0751,0.0751,0.0752,0.0761,0.076,0.0759,0,0,0,0,0,0,0,0,0,0,0,0,0,0.0566,0.0568,0.0669,0.0669,0.067,0.0705,0.0706,0.0706,0.075,0.0751,0.0752,0.0753,0.0761,0.076,0.0759,0,0,0,0,0,0,0,0,0,0,0,0,0,0.0605,0.0568,0.0669,0.0698,0.0701,0.0705,0.0706,0.0706,0.0749,0.0751,0.0752,0.0753,0.0761,0.076,0.0759,0.0728,0,0,0.0757,0.0756,0,0,0,0,0,0,0,0,0.0603,0.0609,0.0693,0.0696,0.0699,0.0726,0.0673,0.0713,0.0749,0.0729,0.0752,0.0754,0.0747,0.0747,0.0749,0.0728,0.0728,0.0757,0.0756,0.0756,0.0755,0,0,0,0,0,0,0,0.06,0.0607,0.0681,0.0693,0.0697,0.0685,0.0692,0.068,0.0728,0.073,0.0734,0.0741,0.0748,0.0749,0.0749,0.0729,0.0757,0.0756,0.0755,0.0755,0.0793,0.0794,0,0,0,0,0,0,0.0603,0.0605,0.068,0.0682,0.0656,0.0686,0.0694,0.0714,0.0729,0.0733,0.074,0.0743,0.075,0.075,0.0749,0.083,0.0756,0.0755,0.0754,0.0791,0.0793,0.0795,0,0,0,0,0,0,0.0601,0.061,0.0679,0.0645,0.0654,0.0687,0.0709,0.0715,0.074,0.0737,0.074,0.0763,0.0751,0.0751,0.0815,0.0827,0.0754,0.0754,0.079,0.0792,0.0794,0.0916,0,0,0,0,0,0,0.0598,0.0609,0.0641,0.0646,0.0656,0.0714,0.0708,0.0714,0.0742,0.0747,0.0757,0.0758,0.0752,0.0817,0.0814,0.0824,0.0753,0.0788,0.0791,0.0793,0.091,0.0922,0.0933,0,0,0,0,0,0.0594,0.061,0.0643,0.0653,0.0694,0.0716,0.072,0.0745,0.0742,0.0768,0.0806,0.0759,0.0831,0.082,0.0815,0.0825,0.0786,0.079,0.0793,0.0905,0.092,0.0933,0,0,0,0,0,0,0.0543,0.0616,0.0652,0.0683,0.0721,0.0725,0.0747,0.0753,0.0797,0.0809,0.0801,0.0807,0.0857,0.0828,0.0815,0.0843,0.0789,0.0792,0.0875,0.0889,0.09,0.0902,0.0752,0,0,0,0,0,0.0559,0.0632,0.0662,0.0702,0.0715,0.0737,0.0752,0.0769,0.0797,0.0817,0.0845,0.0855,0.0859,0.0872,0.0878,0.0903,0.0896,0.0898,0.0909,0.0919,0.0918,0.096,0.0976,0.0806,0.0806,0.0806,0,0,0.0576,0.0606,0.0663,0.0705,0.0732,0.0761,0.075,0.078,0.0811,0.0808,0.0886,0.0902,0.0877,0.0923,0.0937,0.0908,0.0966,0.0923,0.0932,0.0925,0.0966,0.0982,0.0997,0.0809,0.0808,0.0808,0,0,0.0581,0.0647,0.0691,0.0732,0.0775,0.0792,0.0806,0.0844,0.0871,0.0942,0.0942,0.0987,0.1008,0.1008,0.0995,0.1062,0.1028,0.1051,0.111,0.1152,0.1167,0.1179,0.1209,0.1223,0.1054,0.1054,0.1054,0,0.0616,0.0639,0.0703,0.0726,0.0773,0.0808,0.0841,0.0864,0.0934,0.0969,0.0986,0.1038,0.1037,0.1048,0.1097,0.1084,0.1113,0.1064,0.1169,0.1181,0.1192,0.1219,0.1233,0.106,0.106,0.1059,0.1058,0,0.0622,0.0667,0.0684,0.0762,0.0818,0.0856,0.0905,0.0976,0.1021,0.1045,0.1106,0.1125,0.115,0.1153,0.1157,0.1215,0.1212,0.1185,0.1139,0.1217,0.124,0.1252,0.1069,0.1067,0.1065,0.1064,0,0,0.0669,0.0698,0.0716,0.0759,0.0847,0.0893,0.097,0.1041,0.1107,0.1153,0.1214,0.1236,0.1248,0.1235,0.1226,0.1278,0.14,0.1291,0.129,0.1328,0.1513,0.1407,0.141,0.1417,0.142,0.1422,0.1505,0,0.0674,0.0706,0.0732,0.0823,0.0858,0.0955,0.1038,0.1122,0.1194,0.1276,0.1249,0.13,0.1263,0.1304,0.1339,0.1391,0.1438,0.138,0.1423,0.1424,0.1327,0.1422,0.143,0.1514,0.1517,0.1519,0.152,0,0.0673,0.07,0.0762,0.0872,0.0904,0.0982,0.1168,0.1233,0.1331,0.1385,0.1406,0.1402,0.1438,0.1413,0.1486,0.1467,0.1504,0.1534,0.1537,0.1399,0.134,0.1413,0.1542,0.154,0.1539,0.1537,0.1536,0,0.0672,0.0733,0.0789,0.0836,0.0961,0.1046,0.1133,0.128,0.1328,0.1449,0.1494,0.152,0.1541,0.1579,0.1607,0.1587,0.1707,0.1664,0.1584,0.1577,0.1592,0.1577,0.1731,0.1731,0.1731,0.173,0.173,0,0.0667,0.0726,0.08,0.0849,0.0968,0.1066,0.1206,0.1314,0.1406,0.1465,0.1521,0.1555,0.1604,0.1646,0.1661,0.1654,0.173,0.1612,0.1598,0.1642,0.1632,0.1601,0.1585,0.1733,0.1733,0.1732,0.1732,0,0.0661,0.0702,0.0781,0.0911,0.0964,0.1065,0.1203,0.1279,0.1398,0.1473,0.1498,0.1599,0.1691,0.1704,0.1805,0.1713,0.1732,0.1712,0.1772,0.1758,0.1561,0.155,0.1627,0.1624,0.1622,0.162,0.1618,0,0.0655,0.0673,0.0819,0.0881,0.0945,0.1077,0.1157,0.1272,0.1323,0.1484,0.149,0.1618,0.1677,0.1704,0.1759,0.176,0.1729,0.1708,0.1617,0.1575,0.1555,0.1548,0.1541,0.1614,0.1613,0.1613,0.1612,0,0.0629,0.0686,0.0753,0.0867,0.096,0.1035,0.1138,0.114,0.1272,0.1381,0.1465,0.1507,0.1611,0.1665,0.1687,0.1676,0.1702,0.1681,0.1685,0.16,0.156,0.1541,0.1537,0.1604,0.1605,0.1606,0.1606,0,0.0622,0.0655,0.0735,0.0839,0.0928,0.0954,0.1019,0.1079,0.1126,0.1279,0.133,0.1478,0.1624,0.1625,0.1643,0.1629,0.1585,0.1493,0.1505,0.1515,0.1434,0.1365,0.1356,0,0,0,0,0,0.0588,0.0612,0.0695,0.0767,0.0838,0.0872,0.0987,0.1037,0.1148,0.1171,0.1234,0.1335,0.1398,0.1482,0.1441,0.1559,0.1564,0.1498,0.1456,0.1557,0.1566,0.1478,0,0,0,0,0,0,0.0575,0.0635,0.0668,0.0676,0.0679,0.0716,0.0762,0.0837,0.0864,0.1017,0.1079,0.1211,0.1308,0.1395,0.1398,0.1415,0.135,0.1593,0.1589,0.1551,0.156,0.1568,0.148,0,0,0,0,0]},{"header":{"parameterUnit":"m.s-1","parameterCategory":2,"la1":30.2991,"la2":30.254,"lo1":-89.0895,"lo2":-89.0444,"dy":0.0017,"dx":0.0017,"nx":28,"ny":28,"refTime":"2025-03-05T09:00:00:Z","depth":"4","parameterNumber":3,"parameterNumberName":"V-component_of_CURRENTS"},"data":[0,0,0,0,0,0,0,0,0,0,0,0,0,0,0,0,0,0,0,0,0,0,0,0,0,0,0,0,0,0,0,0,0,0,0,0,0,0,0,0,0,0,0,0,0,0,0,0,0,0,0,0,0,0,0,0,0,0,0.0595,0.0596,0,0.0629,0.0629,0.0629,0.0614,0.0614,0.0613,0.0613,0.0614,0.0614,0.0614,0,0,0,0,0,0,0,0,0,0,0,0,0,0.051,0.0511,0.0595,0.0596,0.0597,0.0629,0.0629,0.0629,0.0614,0.0614,0.0613,0.0613,0.0613,0.0614,0.0614,0,0,0,0,0,0,0,0,0,0,0,0,0,0.054,0.0511,0.0595,0.0598,0.0599,0.0629,0.0629,0.0629,0.0614,0.0614,0.0613,0.0613,0.0613,0.0614,0.0614,0.0625,0,0,0.0615,0.0615,0,0,0,0,0,0,0,0,0.0538,0.0542,0.0596,0.0598,0.0599,0.0622,0.06,0.0628,0.0614,0.0602,0.0613,0.0613,0.0618,0.0618,0.0617,0.0625,0.0625,0.0615,0.0616,0.0616,0.0616,0,0,0,0,0,0,0,0.0536,0.0541,0.0602,0.0598,0.0599,0.0596,0.0599,0.0604,0.0606,0.0603,0.0603,0.0617,0.0617,0.0616,0.0617,0.0625,0.0615,0.0616,0.0616,0.0616,0.0645,0.0646,0,0,0,0,0,0,0.0545,0.0539,0.0601,0.0604,0.0574,0.0598,0.0601,0.061,0.0607,0.0608,0.0617,0.0616,0.0616,0.0616,0.0617,0.0629,0.0616,0.0616,0.0616,0.0645,0.0645,0.0646,0,0,0,0,0,0,0.0543,0.055,0.06,0.0577,0.0584,0.0601,0.061,0.0611,0.0616,0.062,0.0619,0.0623,0.0616,0.0616,0.0611,0.0629,0.0616,0.0617,0.0644,0.0645,0.0646,0.0655,0,0,0,0,0,0,0.054,0.0549,0.0563,0.0578,0.0586,0.0617,0.0611,0.0612,0.0628,0.0627,0.0624,0.0623,0.0615,0.0611,0.0612,0.063,0.0617,0.0643,0.0644,0.0645,0.0654,0.0656,0.0657,0,0,0,0,0,0.0537,0.0559,0.0563,0.0571,0.0602,0.0618,0.0621,0.0627,0.0629,0.0629,0.062,0.0624,0.0618,0.0611,0.0612,0.0631,0.0643,0.0644,0.0645,0.0653,0.0655,0.0657,0,0,0,0,0,0,0.0552,0.0561,0.0565,0.0595,0.0606,0.0618,0.0636,0.0634,0.0629,0.063,0.0622,0.062,0.0629,0.0627,0.0618,0.0643,0.0636,0.0637,0.0641,0.0643,0.0645,0.0635,0.0617,0,0,0,0,0,0.0558,0.056,0.0579,0.0603,0.0616,0.0625,0.0637,0.0636,0.0637,0.0635,0.0627,0.0628,0.0636,0.0635,0.0638,0.0645,0.0613,0.0661,0.0663,0.0665,0.0658,0.0615,0.0611,0.065,0.065,0.065,0,0,0.0564,0.0579,0.0576,0.0603,0.0618,0.0637,0.0629,0.0649,0.0654,0.0637,0.0638,0.0636,0.064,0.0646,0.0651,0.0644,0.0636,0.0666,0.0667,0.0659,0.0616,0.0611,0.0608,0.0651,0.0651,0.065,0,0,0.0589,0.06,0.0613,0.0623,0.065,0.0653,0.066,0.0668,0.0663,0.0661,0.0657,0.0652,0.066,0.0657,0.0662,0.0677,0.0651,0.0693,0.0689,0.0648,0.0644,0.064,0.0584,0.0575,0.069,0.069,0.069,0,0.0596,0.0627,0.0622,0.065,0.0663,0.0662,0.0684,0.0683,0.0679,0.0677,0.0664,0.0665,0.0665,0.0675,0.0675,0.0681,0.0645,0.068,0.0648,0.0643,0.0639,0.0583,0.0573,0.069,0.069,0.069,0.069,0,0.063,0.066,0.0678,0.0699,0.0705,0.0726,0.0726,0.0716,0.0709,0.071,0.0707,0.0686,0.0685,0.0691,0.0686,0.0671,0.0651,0.0656,0.0637,0.0635,0.0577,0.0566,0.0691,0.0691,0.0691,0.0691,0,0,0.0623,0.0684,0.0691,0.0717,0.0731,0.0743,0.0741,0.0746,0.0747,0.0732,0.0725,0.0726,0.0713,0.0715,0.0706,0.0663,0.0598,0.0644,0.0641,0.0579,0.0488,0.0466,0.0452,0.0593,0.0592,0.0591,0.0456,0,0.0653,0.0718,0.0727,0.0774,0.0805,0.0788,0.0787,0.0783,0.0765,0.0753,0.0737,0.074,0.0727,0.0719,0.0677,0.0628,0.0572,0.0633,0.0507,0.0503,0.0476,0.044,0.0586,0.0448,0.0445,0.0443,0.0442,0,0.0679,0.0722,0.0778,0.0817,0.0828,0.0846,0.0829,0.083,0.0809,0.0793,0.0776,0.076,0.0721,0.0699,0.0591,0.0629,0.0555,0.0501,0.0495,0.0463,0.0462,0.0453,0.0422,0.0423,0.0425,0.0426,0.0427,0,0.0681,0.0752,0.08,0.0814,0.0852,0.0862,0.0873,0.0852,0.0857,0.0825,0.0818,0.0765,0.0744,0.0645,0.0546,0.056,0.0403,0.0413,0.0316,0.0313,0.037,0.0376,0.031,0.0311,0.0311,0.0311,0.0312,0,0.0702,0.0749,0.0816,0.0844,0.0889,0.0897,0.0918,0.0909,0.0899,0.092,0.0859,0.0844,0.0727,0.0635,0.0531,0.0388,0.0392,0.0296,0.0273,0.0377,0.0385,0.0361,0.0368,0.0306,0.0307,0.0308,0.0309,0,0.0711,0.0755,0.0821,0.0879,0.0902,0.0935,0.0978,0.0985,0.0971,0.0982,0.098,0.0901,0.0778,0.0639,0.0467,0.038,0.0239,0.0184,0.0286,0.0275,0.0175,0.0185,0.0053,0.0051,0.0049,0.0048,0.0046,0,0.072,0.0756,0.0849,0.0886,0.0928,0.0978,0.1006,0.1022,0.1039,0.1025,0.1039,0.0927,0.0855,0.0595,0.044,0.0204,0.0183,0.0093,0.0141,0.0154,0.0146,0.0159,0.017,0.0044,0.0043,0.0043,0.0042,0,0.073,0.0772,0.0829,0.0912,0.0969,0.1025,0.1083,0.1109,0.1124,0.1111,0.1079,0.0948,0.0797,0.0599,0.0402,0.0246,0.0143,0.0075,0.0078,0.0123,0.0142,0.0138,0.0152,0.0037,0.0037,0.0038,0.0038,0,0.0736,0.0781,0.0857,0.093,0.0991,0.1061,0.1096,0.1128,0.1148,0.1148,0.1134,0.0978,0.0884,0.0619,0.045,0.0275,0.024,0.0192,0.0188,0.0193,0.0278,0.0326,0.024,0,0,0,0,0,0.073,0.0794,0.0864,0.0954,0.1008,0.106,0.1131,0.1159,0.119,0.1176,0.116,0.1023,0.0767,0.0655,0.0477,0.0409,0.0199,0.0191,0.014,0.0004,0.0011,0.0086,0,0,0,0,0,0,0.0733,0.0812,0.0868,0.0944,0.1004,0.1083,0.1139,0.1175,0.1166,0.117,0.1038,0.0969,0.0719,0.087,0.0471,0.0416,0.0357,0.007,0.0066,0.0,0.0006,0.0012,0.0092,0,0,0,0,0]}]]